Flag for India Weather past 2 weeks in Tarn Taran Sahib, Punjab, India

Now
99 °F

Scattered clouds.


Feels Like: 96 °F
Forecast: 79 / 108 °F
Wind: 2 mph from North

Location: Amritsar Airport

Current Time: May 24, 2015 at 11:44:50 AM

Latest Report: May 24, 2015 at 11:00 AM


Visibility: 4 mi

Pressure: 29.53 "Hg

Humidity: 22%

Dew point: 54 °F

Location of Tarn Taran SahibLocation

Historic Weather in Tarn Taran Sahib — Graph

°F

Tarn Taran Sahib temperature yesterday

Maximum temperature yesterday: 109 °F (at 2:30 PM)
Minimum temperature yesterday: 73 °F (at 6:00 AM)
Average temperature yesterday: 93 °F

Past Weeks' High & Low Weather Summary

 TemperatureHumidityPressure
High109 °F (May 23, 2:30 PM)100% (May 13, 2:00 AM)29.89 "Hg (May 13, 2:00 AM)
Low68 °F (May 13, 2:00 AM)11% (May 23, 2:30 PM)29.42 "Hg (May 23, 4:00 PM)
Average88 °F46%29.65 "Hg
* Reported May 9 9:30 AM — May 24 10:00 AM, Tarn Taran Sahib, Weather by CustomWeather, © 2015

Note: Actual official high and low records may vary slightly from our data, if they occured in-between our weather recording intervals... More about our weather records

Advertising

Tarn Taran Sahib weather history for previous 24 hours

 ConditionsComfort  
Time TempWeatherWind HumidityBarometerVisibility
10:00 AM
Sun, May 24
95 °FScattered clouds.2 mph23%29.53 "Hg4 mi
9:30 AM95 °FClear.7 mph23%29.53 "Hg4 mi
9:00 AM93 °FPassing clouds.1 mph26%29.50 "Hg4 mi
8:30 AM90 °FPassing clouds.9 mph29%29.50 "Hg3 mi
7:30 AM84 °FScattered clouds.9 mph37%29.47 "Hg2 mi
7:00 AM82 °FScattered clouds.8 mph40%29.47 "Hg2 mi
6:30 AM82 °FScattered clouds.7 mph40%29.47 "Hg2 mi
6:00 AM81 °FScattered clouds.8 mph39%29.47 "Hg2 mi
5:30 AM81 °FPassing clouds.7 mph39%29.47 "Hg2 mi
5:00 AM84 °FPassing clouds.7 mph33%29.47 "Hg2 mi
4:30 AM81 °FPassing clouds.7 mph37%29.47 "Hg2 mi
3:30 AM82 °FPassing clouds.6 mph32%29.47 "Hg2 mi
3:00 AM82 °FPassing clouds.5 mph32%29.45 "Hg2 mi
2:30 AM84 °FPassing clouds.7 mph31%29.47 "Hg2 mi
2:00 AM84 °FPassing clouds.6 mph31%29.47 "Hg2 mi
1:30 AM86 °FPassing clouds.7 mph29%29.47 "Hg2 mi
1:00 AM88 °FPassing clouds.8 mph27%29.47 "Hg2 mi
12:30 AM88 °FPassing clouds.7 mph29%29.50 "Hg2 mi
12:00 AM88 °FPassing clouds.7 mph35%29.50 "Hg2 mi
11:30 PM
Sat, May 23
86 °FPassing clouds.5 mph38%29.50 "Hg2 mi
11:00 PM90 °FPassing clouds.3 mph31%29.47 "Hg2 mi
10:30 PM95 °FPassing clouds.8 mph25%29.47 "Hg2 mi
10:00 PM93 °FPassing clouds.5 mph26%29.47 "Hg2 mi
9:30 PM90 °FPassing clouds.2 mph31%29.47 "Hg2 mi
9:00 PM93 °FPassing clouds.No wind26%29.45 "Hg2 mi
8:30 PM97 °FPassing clouds.No wind22%29.45 "Hg2 mi
8:00 PM97 °FPassing clouds.No wind22%29.45 "Hg3 mi
7:30 PM99 °FScattered clouds.No wind19%29.42 "Hg4 mi
7:00 PM102 °FScattered clouds.3 mph17%29.42 "Hg4 mi
6:30 PM104 °FScattered clouds.6 mph14%29.42 "Hg4 mi
6:00 PM106 °FScattered clouds.8 mph13%29.42 "Hg4 mi
5:30 PM108 °FClear.7 mph14%29.42 "Hg4 mi
5:00 PM108 °FPassing clouds.No wind13%29.42 "Hg4 mi
4:30 PM108 °FPassing clouds.3 mph12%29.42 "Hg4 mi
4:00 PM108 °FPassing clouds.2 mph12%29.42 "Hg4 mi
3:30 PM108 °FPassing clouds.1 mph12%29.45 "Hg4 mi
3:00 PM108 °FPassing clouds.6 mph12%29.45 "Hg4 mi
2:30 PM109 °FClear.2 mph11%29.45 "Hg4 mi
2:00 PM108 °FClear.3 mph13%29.47 "Hg4 mi
1:30 PM106 °FClear.3 mph13%29.47 "Hg4 mi
1:00 PM106 °FScattered clouds.2 mph13%29.47 "Hg4 mi
12:30 PM106 °FPartly sunny.2 mph14%29.50 "Hg4 mi
12:00 PM104 °FPartly sunny.3 mph15%29.50 "Hg4 mi
11:30 AM102 °FPartly sunny.2 mph17%29.50 "Hg3 mi
11:00 AM100 °FPartly sunny.6 mph17%29.50 "Hg3 mi
Weather by CustomWeather, © 2015

See weather overviewHow to use our weather pages